PORT of AGIOS KONSTANTINOS

Land: Greece Land: Greece [GR]
Breiddargráða/Lengdargráða: 38.758095° / 22.866425° Sýnið á korti
Staðartími:  [UTC +3]
UN/LOCODE: GRAKO
Skip nú í höfn: 1
Áætlaðar komur: 6

Nýlegar komur og brottfarir


Heiti skips
Koma (UTC)
Koma (LT)
Brottför (UTC)
Brottför (LT)
Vessel Type: Farþegaskip  EXPRESS PEGASUS 2014-08-27 17:43:00 2014-08-27 20:43:00
Vessel Type: Fiskveiðar  DIMITRA V 2014-08-27 15:04:00 2014-08-27 18:04:00 2014-08-27 16:25:00 2014-08-27 19:25:00
Vessel Type: Háhraðafar  FLYING DOLPHIN ERATO 2014-08-27 15:27:00 2014-08-27 18:27:00 2014-08-27 15:50:00 2014-08-27 18:50:00
Vessel Type: Farþegaskip  OSIOS DAVID 2014-08-27 07:08:00 2014-08-27 10:08:00 2014-08-27 07:29:00 2014-08-27 10:29:00
Vessel Type: Farþegaskip  EXPRESS PEGASUS 2014-08-26 18:16:00 2014-08-26 21:16:00 2014-08-27 07:16:00 2014-08-27 10:16:00
Vessel Type: Háhraðafar  FLYINGCAT 6 2014-08-26 16:18:00 2014-08-26 19:18:00 2014-08-26 16:48:00 2014-08-26 19:48:00
Vessel Type: Farþegaskip  OSIOS DAVID 2014-08-26 11:31:00 2014-08-26 14:31:00 2014-08-26 14:14:00 2014-08-26 17:14:00
Vessel Type: Farþegaskip  EXPRESS PEGASUS 2014-08-25 18:21:00 2014-08-25 21:21:00 2014-08-26 07:12:00 2014-08-26 10:12:00
Vessel Type: Háhraðafar  FLYINGCAT 6 2014-08-25 16:17:00 2014-08-25 19:17:00 2014-08-25 16:49:00 2014-08-25 19:49:00
Vessel Type: Háhraðafar  FLYING DOLPHIN ERATO 2014-08-25 15:34:00 2014-08-25 18:34:00 2014-08-25 15:53:00 2014-08-25 18:53:00

Áætlaðar komur


Heiti skips
Scheduled Arrival (UTC)
Scheduled Arrival (LT)
Áætluð koma (UTC)
Áætluð koma (staðartíma)
Vessel Type: Háhraðafar  FLYING DOLPHIN ERATO 2014-08-27 14:55:00 2014-08-27 17:55:00 2014-08-27 15:16:00 2014-08-27 18:16:00
Vessel Type: Háhraðafar  FLYING DOLPHIN ERATO 2014-08-27 14:55:00 2014-08-27 17:55:00 2014-08-27 15:16:00 2014-08-27 18:16:00
Vessel Type: Háhraðafar  FLYING DOLPHIN ERATO 2014-08-27 14:55:00 2014-08-27 17:55:00 2014-08-27 15:16:00 2014-08-27 18:16:00
Vessel Type: Farþegaskip  EXPRESS PEGASUS 2014-08-27 17:30:00 2014-08-27 20:30:00 2014-08-27 17:35:00 2014-08-27 20:35:00
Vessel Type: Farþegaskip  EXPRESS PEGASUS 2014-08-27 17:30:00 2014-08-27 20:30:00 2014-08-27 17:35:00 2014-08-27 20:35:00
Vessel Type: Farþegaskip  EXPRESS PEGASUS 2014-08-27 17:30:00 2014-08-27 20:30:00 2014-08-27 17:35:00 2014-08-27 20:35:00

Wind Forecast


    
Tímasetning (staðartími)
Hraði
Direction
Temperature
2014-08-27 21:00:00 8 knots 260° 26°C
2014-08-28 00:00:00 11 knots 289° 26°C
2014-08-28 03:00:00 11 knots 315° 25°C
2014-08-28 06:00:00 14 knots 340° 25°C
2014-08-28 09:00:00 14 knots 10° 27°C
2014-08-28 12:00:00 14 knots 40° 27°C
2014-08-28 15:00:00 12 knots 47° 26°C
2014-08-28 18:00:00 8 knots 38° 26°C
2014-08-28 21:00:00 12 knots 357° 26°C
2014-08-29 00:00:00 16 knots 15° 25°C
2014-08-29 03:00:00 17 knots 30° 24°C
2014-08-29 06:00:00 18 knots 36° 24°C
2014-08-29 09:00:00 19 knots 42° 23°C
2014-08-29 12:00:00 18 knots 43° 23°C
2014-08-29 15:00:00 14 knots 42° 24°C
2014-08-29 18:00:00 11 knots 29° 24°C
2014-08-29 21:00:00 11 knots 21° 24°C